[Iaude] MPEC U236: 2023 UT7 [a=2.17,e=0.41,i=3.3,H=23.4]
    mpec at marsden.cfa.harvard.edu 
    mpec at marsden.cfa.harvard.edu
       
    Tue Oct 24 17:46:37 EDT 2023
    
    
  
M.P.E.C. 2023-U236                             Issued 2023 October 24, 21:45 UT
     The Minor Planet Electronic Circulars contain information on unusual
         minor planets, routine data on comets and natural satellites,
         and occasional editorial announcements.  They are published
    on behalf of Division F of the International Astronomical Union by the
          Minor Planet Center, Smithsonian Astrophysical Observatory,
                          Cambridge, MA 02138, U.S.A.
			  
             Prepared using the Tamkin Foundation Computer Network
                              MPC at CFA.HARVARD.EDU
            URL https://www.minorplanetcenter.net/    ISSN 1523-6714
                                    2023 UT7                                    
Observations:
     K23U07T* C2023 10 19.28590901 37 11.276+22 43 33.53         23.22GVEU236V00
     K23U07T  C2023 10 19.29142501 37 11.150+22 43 31.37         22.49GVEU236V00
     K23U07T  C2023 10 19.29693001 37 11.071+22 43 28.88         22.33GVEU236V00
     K23U07T  C2023 10 19.30244801 37 10.960+22 43 26.33         22.28GVEU236V00
     K23U07T mC2023 10 19.37606201 37 09.584+22 42 54.50               VEU236V00
     K23U07T mC2023 10 19.38317201 37 09.455+22 42 51.08         22.28GVEU236V00
     K23U07T mC2023 10 19.39025601 37 09.340+22 42 47.88         22.06GVEU236V00
     K23U07T mC2023 10 19.39751301 37 09.221+22 42 44.64         22.08GVEU236V00
     K23U07T KC2023 10 20.14325 01 37 03.79 +22 37 19.9          22.2 GVEU236291
     K23U07T KC2023 10 20.15599 01 37 03.61 +22 37 14.9          22.3 GVEU236291
     K23U07T KC2023 10 20.16876 01 37 03.41 +22 37 09.7          22.4 GVEU236291
     K23U07T KC2023 10 22.34234 01 36 41.31 +22 20 46.4          21.9 GVEU236291
     K23U07T KC2023 10 22.35357 01 36 41.12 +22 20 41.2          22.0 GVEU236291
     K23U07T KC2023 10 22.36481 01 36 40.92 +22 20 35.7          22.3 GVEU236291
     K23U07T KC2023 10 23.15032 01 36 35.68 +22 14 23.2          22.3 GVEU236291
     K23U07T KC2023 10 23.16155 01 36 35.50 +22 14 18.3          22.2 GVEU236291
     K23U07T KC2023 10 23.17279 01 36 35.34 +22 14 13.5          22.6 GVEU236291
Observer details:
291 LPL/Spacewatch II.  Observers M. J. Brucker, A. F. Tubbiolo.  1.8-m f/2.7
    reflector + CCD.
V00 Kitt Peak-Bok.  Observer R. A. Mastaler.  Measurers M. J. Brucker, C. E.
    Woodward, D. Fay, J. B. Fazekas, D. C. Fuls, A. R. Gibbs, H. Groeller, J.
    K. Hogan, R. A. Kowalski, S. M. Larson, C. Lejoly, G. J. Leonard, R. A.
    Mastaler, R. S. McMillan, D. Rankin, R. L. Seaman, A. Serrano, F. C.
    Shelly, K. W. Wierzchos.  2.25-m reflector + 4x4K mosaic CCD.
Orbital elements:
2023 UT7                                                 Earth MOID = 0.2877 AU
Epoch 2023 Sept. 13.0 TT = JDT 2460200.5                Bell                    
M   3.46479              (2000.0)            P               Q                  
n   0.30735373     Peri.   65.92298     +0.98403956     +0.16901009             
a   2.1745883      Node   284.30876     -0.17687913     +0.89470035             
e   0.4075672      Incl.    3.29496     -0.01949123     +0.41345723             
P   3.21           H   23.41          G   0.15           U   9                  
Residuals in seconds of arc
231019 V00  0.1+  0.0     231019 V00  0.1+  0.1-    231022 291  0.0   0.2+
231019 V00  0.2-  0.1+    231019 V00  0.2+  0.0     231022 291  0.1-  0.1+
231019 V00  0.1+  0.0     231020 291  0.2-  0.0     231023 291  0.2+  0.2-
231019 V00  0.0   0.2-    231020 291  0.0   0.1+    231023 291  0.1-  0.1-
231019 V00  0.0   0.1+    231020 291  0.0   0.0     231023 291  0.0   0.0
231019 V00  0.0   0.1-    231022 291  0.0   0.1-
Ephemeris:
2023 UT7                 a,e,i = 2.17, 0.41, 3                   q = 1.2883
Date    TT    R. A. (2000) Decl.     Delta      r    Elong.  Phase     V
2023 09 24    01 35 48.1 +23 26 55   0.3439  1.3061   147.3    24.5    22.8
...
2023 10 09    01 38 33.6 +23 38 27   0.3546  1.3371   159.5    15.2    22.6
...
2023 10 17    01 37 34.0 +22 59 06   0.3707  1.3591   165.7    10.5    22.6
...
2023 10 23    01 36 35.9 +22 15 41   0.3884  1.3779   168.5     8.3    22.6
2023 10 24    01 36 27.5 +22 07 43   0.3918  1.3813   168.7     8.1    22.6
2023 10 25    01 36 19.8 +21 59 35   0.3954  1.3846   168.8     8.0    22.7
...
2023 10 31    01 35 52.5 +21 08 47   0.4198  1.4058   167.5     8.8    22.9
...
2023 11 08    01 36 26.3 +20 01 07   0.4606  1.4364   162.1    12.2    23.2
...
2023 11 23    01 42 19.5 +18 19 32   0.5629  1.4999   149.5    19.5    24.0
M. P. C. Staff               (C) Copyright 2023 MPC           M.P.E.C. 2023-U236
    
    
More information about the Iaude
mailing list